SKYSAT-C6 (42992 NORAD) Tracking and Keplerian Element Data

This shows tracking and keplerian element data for the satellite.

Feedback or suggestion? Click here.




ElementValue
Catalog42992
NameSKYSAT-C6
Epoch Orbit3893
Epoch Day196.07886251
Epoch Year2018
RAAN309.9601
Inclination97.4077
Eccentricity0.0013458
Argument of Perigee85.4808
Mean Anonmoly274.7965
Mean Motion15.21383673
Decay Rate4.25E-06
L11 42992U 17068F 18196.07886251 .00000425 00000-0 22021-4 0 9992
L22 42992 97.4077 309.9601 0013458 85.4808 274.7965 15.21383673 38936

Live tracking and technical data element details for SKYSAT-C6 (NORAD 42992). SKYSAT-C6 can be tracked NOW for your location showing map with azimuth and elevation plus other details from your city location.

Track the satellite on the map from your city or location and see movement details for azimuth, elevation, latitude, longitude, range, height, and movement on the map or in text.







IsCatalogInMostPopularTable: catalog: 42992, numindb: 89
Update: records affected: 1



GetName: 42992 SKYSAT-C6

Hit Count: updated at: Sun, 15 Jul 2018 22:57:11 GMT